Wind_Speed
5 6 6 5 4 3 3 4 5 6 6 7 7 8 8 8 9 8 8 8 8 8 7 7 7 7 6 6 6 5 5 5 6 5 5 4 4 5 6 6 6 7 8
5 6 6 5 4 3 3 4 4 5 6 7 7 7 7 8 8 8 8 8 8 8 7 7 7 6 6 5 5 6 5 5 5 5 5 5 5 6 6 7 7 7 7
6 6 6 5 4 3 2 2 3 4 5 7 7 7 8 8 7 7 7 7 7 7 7 6 6 6 5 5 5 5 5 4 4 5 5 5 5 6 5 6 6 6 6
7 6 6 5 3 3 2 2 2 3 4 5 5 6 7 7 7 7 6 7 7 6 6 6 6 5 5 5 5 5 5 4 4 5 5 5 6 6 5 5 4 5 5
6 6 5 4 3 2 2 2 2 3 3 4 5 5 6 6 7 7 6 6 6 6 6 6 6 5 5 5 4 5 4 5 5 4 4 5 5 5 5 5 4 4 4
7 6 5 5 4 3 1 1 1 2 3 4 5 5 6 6 5 6 6 5 6 6 5 5 5 5 4 4 5 5 5 4 6 5 4 5 5 5 4 4 3 3 4
7 6 6 5 4 3 2 1 0 2 3 3 4 5 5 5 5 5 5 5 5 5 5 5 5 5 5 5 5 5 5 5 5 5 5 5 5 4 3 3 3 3 3
7 6 5 4 3 2 1 1 1 2 3 3 3 4 4 4 5 5 5 5 5 5 5 5 5 5 4 5 5 5 4 5 5 5 5 4 4 3 3 3 3 3 2
8 7 6 4 3 2 2 1 1 2 3 3 4 4 3 4 4 4 4 4 5 6 6 5 5 5 5 5 5 5 5 5 5 4 4 3 3 3 3 3 2 2 2
10 8 7 5 3 3 2 2 2 2 3 3 4 4 3 3 4 4 3 4 4 5 5 5 5 5 4 5 5 5 5 5 4 4 3 3 3 3 2 2 2 1 1
11 9 8 7 5 2 1 1 1 2 2 3 4 4 4 4 4 4 4 4 4 5 5 5 5 5 5 5 5 5 4 4 4 3 3 3 3 2 2 1 1 1 1
12 11 10 8 6 3 1 1 1 1 2 3 3 4 3 3 3 4 4 5 5 5 5 5 5 5 5 5 5 4 4 4 4 3 2 2 1 1 0 0 1 0 0
13 12 11 10 8 5 2 2 1 1 1 1 2 3 2 2 3 4 4 4 4 5 5 4 4 5 5 5 4 4 3 3 3 3 2 1 0 0 1 1 1 1 2
14 12 12 11 10 8 5 4 2 1 1 1 2 2 2 2 3 4 4 4 4 4 4 4 4 4 4 4 4 4 3 3 3 2 2 1 1 1 1 1 2 2 2
14 13 12 11 10 9 7 4 4 2 1 1 1 2 1 2 2 3 3 3 4 4 4 3 3 4 4 4 4 4 3 3 2 2 2 2 2 2 2 2 3 3 3
15 13 12 11 11 9 8 5 4 2 2 1 1 1 1 1 1 2 2 3 2 3 3 3 3 3 3 3 3 3 3 2 2 2 2 2 3 3 3 4 4 4 4
15 13 13 12 11 10 9 7 5 3 2 2 1 0 1 1 1 2 1 2 2 3 3 3 3 3 3 3 3 3 3 3 3 2 3 3 4 4 4 5 5 5 5
15 14 13 13 12 11 9 8 6 4 3 2 1 1 1 1 1 2 2 2 2 2 3 3 3 3 3 3 3 3 3 4 4 4 4 4 4 5 6 6 6 6 6
16 15 14 12 11 11 9 9 8 6 4 2 1 1 1 2 2 2 3 3 2 2 2 2 3 4 4 4 4 5 5 5 5 5 5 6 5 6 6 6 7 8 8
16 15 14 12 11 11 9 9 9 6 4 3 2 2 2 2 2 2 3 3 3 3 3 3 4 4 4 5 5 6 7 7 7 7 7 7 7 7 7 7 8 8 9
16 16 15 12 11 11 10 8 9 7 5 4 3 2 2 2 2 3 3 3 4 5 5 5 5 5 5 6 6 7 8 8 8 8 8 9 9 9 9 9 10 10 10
17 16 15 13 12 11 10 9 8 7 5 4 4 3 2 2 3 3 4 3 4 5 5 6 6 6 7 7 8 8 9 9 10 9 10 10 10 11 11 11 12 12 12
17 16 15 13 12 11 10 9 8 7 6 5 5 4 4 3 3 3 4 4 5 5 6 6 7 7 8 8 9 9 9 10 10 11 11 11 12 12 12 12 12 12 12
16 15 14 13 12 11 10 9 8 7 6 6 5 5 5 4 4 4 4 5 6 6 6 6 7 8 8 9 9 9 10 10 11 11 12 12 13 13 13 13 13 13 13
15 15 14 13 12 12 11 9 8 8 7 6 6 6 6 5 5 5 5 6 6 7 7 7 8 9 9 10 10 10 10 11 12 12 12 13 13 14 14 14 14 14 15
15 14 14 13 12 11 11 10 9 8 7 7 7 7 7 6 6 6 6 7 7 8 8 8 9 9 10 10 11 11 12 12 13 14 14 14 14 15 15 15 15 16 16
Wind_Direction
40 50 51 45 59 88 105 110 122 138 144 152 153 156 154 152 151 150 148 146 143 142 140 137 134 130 127 128 129 125 118 118 113 106 103 98 104 107 102 92 97 95 95
42 43 41 44 50 64 85 104 124 139 146 150 152 156 155 150 151 152 150 150 150 147 142 139 139 134 130 127 124 121 118 119 113 109 103 100 105 108 96 95 96 98 96
41 43 47 48 54 65 84 109 126 139 154 157 156 156 155 153 152 150 149 149 149 142 137 139 142 139 136 128 124 119 113 110 125 120 109 104 108 106 97 99 100 101 99
43 42 43 43 53 64 73 98 139 150 149 156 157 153 156 154 154 149 147 146 146 142 140 144 145 142 142 134 127 120 114 111 129 124 116 112 106 104 102 104 101 104 101
43 42 41 39 43 57 77 103 148 163 160 162 162 158 157 155 155 153 149 145 145 147 149 148 146 142 143 140 131 125 120 117 123 122 120 111 109 109 106 101 100 101 103
38 37 32 30 31 33 47 126 176 176 172 170 170 166 163 162 160 157 158 157 154 152 151 150 140 138 142 140 138 134 129 122 129 130 117 110 108 110 106 98 94 92 103
33 32 27 24 27 28 20 355 250 200 192 182 175 172 174 171 164 164 167 163 161 159 160 151 140 136 142 143 141 134 124 113 120 119 109 105 106 107 106 96 91 94 102
29 27 27 19 16 18 10 351 225 207 206 202 195 186 182 183 178 171 172 171 169 163 155 151 144 144 146 144 139 135 128 121 112 112 107 102 106 104 104 101 95 98 104
31 27 22 17 11 352 329 305 256 230 225 218 209 202 196 191 186 182 175 169 168 158 149 146 146 144 148 148 141 142 138 122 116 106 106 105 111 107 104 106 98 103 105
29 28 20 13 4 345 323 290 257 232 230 225 212 204 205 196 194 188 181 171 161 157 152 152 151 149 154 151 145 143 135 126 114 111 108 109 107 107 107 105 96 117 117
26 22 20 16 10 358 336 308 279 243 237 229 219 211 212 206 197 189 179 161 148 150 148 145 152 156 154 155 151 142 135 134 128 125 117 117 105 94 92 91 64 117 156
27 26 27 22 21 25 35 357 309 246 230 230 220 206 209 203 195 182 161 153 145 143 147 147 153 159 158 157 153 150 150 151 147 133 127 128 114 101 83 293 305 229 295
28 26 27 25 24 24 18 358 346 287 234 182 190 186 197 195 183 176 165 158 154 152 152 154 159 164 158 156 152 163 174 167 161 161 170 163 145 309 293 290 294 273 274
27 26 27 26 24 24 20 11 1 334 275 217 185 182 178 175 173 176 166 162 162 163 164 164 168 175 172 169 171 174 176 174 188 195 208 219 247 291 300 289 293 286 271
25 25 27 25 24 23 24 18 6 7 349 241 188 176 167 166 162 170 178 173 171 169 174 180 181 172 177 176 173 178 187 189 202 210 229 245 255 272 283 289 287 293 277
23 25 27 25 25 25 23 19 10 4 356 351 180 202 170 175 192 180 167 163 175 182 185 190 179 176 177 183 186 191 203 211 218 232 244 262 266 268 275 282 287 286 283
23 24 24 23 23 22 22 24 22 21 7 32 55 190 216 220 228 209 188 176 185 191 193 190 187 191 192 201 207 214 224 231 236 249 264 272 270 267 270 279 287 288 283
23 21 19 18 18 18 20 24 19 22 28 33 11 303 281 286 262 253 235 213 202 203 202 201 202 214 222 226 232 237 244 246 250 261 272 277 277 279 275 276 281 286 284
19 18 14 13 14 14 13 14 14 13 10 353 346 322 287 292 283 263 255 245 231 218 226 228 225 234 242 249 253 256 257 257 259 268 273 277 277 279 278 279 282 283 283
13 12 9 9 10 9 10 10 7 9 1 341 327 315 277 277 280 266 251 251 252 255 263 259 249 257 261 264 261 260 261 262 266 272 278 281 280 283 284 285 286 286 282
9 9 10 9 8 6 6 6 8 9 8 358 342 323 291 275 278 270 269 264 257 258 263 269 265 267 272 276 273 268 268 268 268 279 279 278 283 286 287 285 283 283 284
7 5 8 9 8 6 7 7 8 9 13 12 351 341 330 298 282 281 283 281 270 265 264 268 268 271 277 279 279 277 278 277 277 277 281 280 283 286 286 285 282 282 285
4 3 5 7 9 9 9 7 359 356 0 356 345 338 333 310 296 289 285 287 285 278 272 272 274 277 282 284 283 282 282 280 283 285 282 283 285 286 287 288 286 285 286
1 1 4 6 8 7 4 1 357 352 346 348 347 339 339 334 315 308 297 294 296 292 290 286 283 285 289 290 284 283 284 283 283 287 287 287 288 287 287 286 287 288 288
357 359 1 3 4 4 3 359 357 352 344 345 346 343 342 337 323 314 307 299 294 291 291 291 289 288 290 293 291 285 282 284 284 286 289 290 291 289 287 288 288 288 289
355 357 358 0 2 3 3 358 353 351 349 349 345 341 338 333 328 320 307 299 296 294 294 291 290 291 293 293 292 289 286 286 286 287 289 289 291 291 290 288 287 289 289
Height
5884 5883 5883 5883 5883 5883 5883 5883 5883 5883 5884 5884 5884 5885 5885 5886 5886 5887 5887 5888 5889 5890 5890 5891 5892 5892 5893 5894 5895 5895 5896 5896 5897 5897 5897 5898 5899 5899 5900 5900 5901 5901 5902
5885 5884 5884 5885 5885 5885 5885 5884 5884 5885 5885 5885 5885 5886 5886 5886 5887 5888 5889 5889 5890 5890 5891 5892 5892 5893 5894 5894 5895 5896 5896 5897 5897 5898 5898 5899 5899 5900 5901 5901 5902 5902 5903
5886 5885 5885 5885 5886 5886 5886 5886 5886 5886 5886 5886 5886 5887 5887 5887 5888 5889 5890 5890 5891 5891 5892 5893 5893 5894 5894 5895 5895 5896 5897 5897 5898 5899 5899 5899 5900 5901 5901 5902 5903 5903 5904
5887 5887 5887 5886 5886 5887 5887 5887 5887 5887 5887 5887 5887 5888 5888 5888 5889 5890 5890 5891 5891 5892 5893 5893 5894 5894 5895 5896 5896 5897 5898 5898 5899 5899 5900 5900 5900 5901 5902 5903 5904 5904 5905
5888 5888 5887 5887 5887 5887 5887 5887 5888 5887 5888 5888 5888 5888 5889 5889 5890 5890 5891 5892 5892 5893 5894 5894 5895 5895 5896 5896 5897 5898 5898 5899 5899 5900 5900 5901 5902 5903 5903 5904 5905 5905 5906
5889 5888 5888 5888 5888 5888 5888 5888 5888 5888 5888 5889 5889 5889 5890 5890 5891 5891 5891 5892 5893 5893 5894 5895 5895 5896 5897 5897 5898 5898 5899 5900 5900 5901 5901 5902 5903 5903 5904 5905 5905 5906 5906
5890 5889 5889 5889 5889 5889 5889 5889 5889 5889 5889 5889 5889 5890 5890 5891 5891 5892 5892 5893 5893 5894 5894 5895 5896 5897 5897 5898 5899 5899 5900 5900 5901 5901 5902 5903 5904 5904 5905 5905 5906 5906 5907
5891 5890 5889 5889 5889 5889 5889 5889 5889 5889 5889 5890 5890 5891 5891 5892 5892 5892 5893 5893 5894 5894 5895 5896 5897 5897 5898 5898 5899 5900 5900 5901 5902 5903 5903 5904 5904 5905 5905 5906 5906 5907 5907
5892 5891 5890 5890 5889 5889 5889 5889 5889 5889 5890 5890 5890 5891 5892 5892 5893 5893 5893 5893 5894 5895 5896 5896 5897 5898 5898 5899 5900 5900 5901 5902 5903 5903 5904 5904 5905 5905 5906 5906 5907 5908 5908
5892 5892 5891 5890 5890 5890 5889 5889 5889 5890 5890 5890 5891 5891 5892 5892 5893 5893 5893 5894 5895 5895 5896 5897 5898 5898 5899 5900 5900 5901 5902 5903 5903 5904 5905 5905 5906 5906 5906 5907 5907 5908 5908
5894 5892 5891 5891 5890 5890 5890 5889 5889 5890 5890 5890 5891 5892 5892 5892 5892 5893 5894 5894 5895 5896 5897 5897 5898 5899 5900 5900 5901 5902 5902 5903 5904 5905 5905 5906 5906 5906 5907 5907 5908 5908 5909
5895 5893 5892 5892 5891 5890 5890 5890 5890 5889 5889 5890 5891 5892 5892 5892 5893 5893 5894 5895 5896 5896 5897 5898 5898 5899 5900 5900 5901 5902 5902 5903 5904 5905 5906 5906 5906 5907 5907 5907 5908 5908 5908
5896 5895 5894 5893 5892 5891 5891 5890 5890 5890 5889 5890 5891 5892 5892 5893 5893 5894 5894 5895 5896 5897 5898 5898 5899 5899 5900 5901 5901 5902 5903 5904 5904 5905 5906 5906 5907 5907 5907 5907 5908 5908 5908
5898 5897 5895 5894 5893 5892 5891 5891 5891 5891 5891 5891 5892 5893 5893 5893 5894 5895 5895 5896 5897 5897 5898 5899 5899 5900 5901 5901 5902 5903 5903 5904 5905 5905 5906 5906 5906 5907 5907 5907 5907 5908 5908
5900 5898 5897 5896 5895 5893 5893 5892 5892 5892 5892 5892 5893 5893 5893 5894 5895 5895 5896 5897 5897 5898 5899 5899 5900 5900 5901 5902 5903 5903 5904 5904 5905 5905 5905 5906 5906 5906 5907 5907 5907 5907 5907
5901 5900 5899 5897 5896 5895 5894 5894 5893 5893 5893 5893 5893 5894 5894 5895 5895 5896 5897 5897 5898 5898 5899 5900 5900 5901 5902 5902 5903 5903 5904 5904 5904 5905 5905 5905 5905 5906 5906 5906 5906 5906 5906
5903 5902 5900 5899 5898 5896 5895 5894 5894 5894 5894 5894 5894 5894 5895 5895 5896 5896 5897 5898 5898 5899 5899 5900 5900 5901 5902 5902 5903 5903 5903 5904 5904 5904 5904 5905 5905 5905 5905 5905 5905 5906 5905
5905 5903 5902 5900 5899 5898 5897 5896 5895 5894 5894 5894 5895 5895 5895 5895 5896 5896 5897 5898 5898 5899 5899 5900 5900 5901 5902 5902 5902 5903 5903 5903 5904 5904 5904 5904 5904 5904 5904 5904 5904 5904 5904
5907 5905 5903 5902 5900 5899 5898 5897 5896 5896 5895 5895 5895 5895 5895 5896 5896 5896 5897 5898 5898 5899 5899 5900 5900 5901 5901 5902 5902 5902 5902 5902 5903 5903 5903 5903 5903 5903 5902 5902 5902 5902 5902
5909 5906 5904 5903 5901 5900 5899 5898 5897 5896 5896 5895 5895 5895 5895 5896 5896 5896 5897 5897 5898 5899 5899 5899 5900 5900 5901 5901 5901 5901 5901 5901 5901 5901 5901 5901 5901 5901 5901 5901 5901 5900 5900
5910 5908 5905 5903 5902 5901 5899 5898 5898 5897 5896 5896 5895 5895 5895 5896 5896 5896 5896 5897 5897 5898 5898 5899 5899 5899 5900 5900 5900 5900 5900 5900 5900 5899 5900 5899 5899 5899 5899 5899 5899 5898 5898
5911 5908 5906 5904 5903 5901 5900 5899 5898 5897 5897 5896 5896 5895 5895 5895 5895 5896 5896 5896 5896 5897 5897 5897 5898 5898 5898 5898 5898 5898 5898 5899 5898 5898 5897 5897 5897 5897 5897 5896 5896 5895 5895
5911 5909 5907 5905 5903 5902 5900 5899 5898 5898 5897 5897 5896 5896 5895 5895 5895 5895 5895 5895 5896 5896 5896 5896 5896 5896 5896 5897 5896 5896 5896 5896 5896 5896 5895 5895 5894 5894 5893 5893 5893 5892 5892
5912 5910 5908 5906 5904 5902 5901 5900 5899 5898 5897 5897 5896 5896 5895 5895 5895 5895 5894 5895 5895 5895 5895 5895 5895 5895 5895 5894 5894 5894 5893 5893 5893 5893 5893 5892 5892 5891 5891 5890 5890 5889 5889
5913 5911 5908 5907 5905 5903 5901 5900 5899 5898 5897 5896 5896 5896 5895 5895 5894 5894 5894 5893 5893 5893 5893 5893 5893 5893 5893 5892 5892 5891 5891 5891 5890 5890 5890 5889 5889 5888 5887 5887 5886 5886 5885
5914 5911 5909 5907 5905 5903 5902 5900 5899 5898 5897 5896 5896 5895 5895 5894 5893 5893 5892 5892 5892 5891 5891 5891 5891 5890 5890 5890 5890 5889 5888 5888 5888 5887 5887 5886 5886 5885 5884 5883 5882 5882 5881